.
WxDataArchive / Data Records for 2015-12-30
2015-12-29 December 2015 2015-12-31

Data Records for Wednesday, 30 December 2015

Time	Temp	Chill	HIndex	Humid	Dewpt	 Wind 	HiWind	WindDir	Rain 	Barom
-----	----	-----	------	-----	-----	------	------	-------	-----	-----
00:00	31.6	31.6	31.6	81	26.5	0	2	248	0.00	30.177 
00:05	31.6	31.6	31.6	81	26.5	0	2	248	0.00	30.177 
00:10	31.6	31.6	31.6	81	26.5	0	2	248	0.00	30.177 
00:15	31.6	31.6	31.6	81	26.5	0	1	248	0.00	30.186 
00:20	31.6	31.6	31.6	81	26.5	1	3	248	0.00	30.186 
00:25	31.6	31.6	31.6	81	26.5	0	2	248	0.00	30.186 
00:30	31.6	31.6	31.6	81	26.5	0	1	248	0.00	30.185 
00:35	31.6	31.6	31.6	82	26.7	0	2	248	0.00	30.185 
00:40	31.6	31.6	31.6	82	26.7	0	2	248	0.00	30.185 
00:45	31.6	31.6	31.6	82	26.7	0	1	248	0.00	30.186 
00:50	31.6	31.6	31.6	82	26.7	0	1	248	0.00	30.186 
00:55	31.6	31.6	31.6	82	26.7	0	1	248	0.00	30.186 
01:00	31.6	31.6	31.6	82	26.7	0	2	248	0.00	30.189 
01:05	31.6	31.6	31.6	82	26.7	0	1	248	0.00	30.189 
01:10	31.6	31.6	31.6	82	26.7	0	1	248	0.00	30.189 
01:15	31.6	31.6	31.6	82	26.7	0	2	248	0.00	30.181 
01:20	31.5	31.5	31.5	82	26.7	0	1	248	0.00	30.181 
01:25	31.5	31.5	31.5	82	26.7	0	1	248	0.00	30.181 
01:30	31.5	31.5	31.5	82	26.7	0	2	248	0.00	30.182 
01:35	31.5	31.5	31.5	82	26.7	0	1	248	0.00	30.182 
01:40	31.6	31.6	31.6	82	26.7	0	1	248	0.00	30.182 
01:45	31.6	31.6	31.6	82	26.7	0	2	248	0.00	30.191 
01:50	31.5	31.5	31.5	82	26.7	0	2	248	0.00	30.191 
01:55	31.5	31.5	31.5	82	26.7	0	1	248	0.00	30.191 
02:00	31.5	31.5	31.5	82	26.7	0	2	248	0.00	30.193 
02:05	31.5	31.5	31.5	82	26.7	0	1	248	0.00	30.193 
02:10	31.5	31.5	31.5	82	26.7	0	1	248	0.00	30.193 
02:15	31.5	31.5	31.5	82	26.7	0	1	248	0.00	30.180 
02:20	31.5	31.5	31.5	82	26.7	0	0	---	0.00	30.180 
02:25	31.5	31.5	31.5	82	26.7	0	1	248	0.00	30.180 
02:30	31.5	31.5	31.5	82	26.7	0	1	248	0.00	30.178 
02:35	31.5	31.5	31.5	82	26.7	0	0	---	0.00	30.178 
02:40	31.3	31.3	31.3	82	26.5	0	0	---	0.00	30.178 
02:45	31.3	31.3	31.3	82	26.5	0	0	---	0.00	30.193 
02:50	31.3	31.3	31.3	82	26.5	0	0	---	0.00	30.193 
02:55	31.5	31.5	31.5	82	26.7	0	0	---	0.00	30.193 
03:00	31.5	31.5	31.5	82	26.7	0	1	248	0.00	30.195 
03:05	31.5	31.5	31.5	82	26.7	0	1	248	0.00	30.195 
03:10	31.5	31.5	31.5	82	26.7	0	0	---	0.00	30.195 
03:15	31.5	31.5	31.5	82	26.7	0	0	---	0.00	30.202 
03:20	31.5	31.5	31.5	82	26.7	0	0	---	0.00	30.202 
03:25	31.5	31.5	31.5	82	26.7	0	1	248	0.00	30.202 
03:30	31.5	31.5	31.5	82	26.7	0	0	---	0.00	30.210 
03:35	31.5	31.5	31.5	82	26.7	0	0	---	0.00	30.210 
03:40	31.6	31.6	31.6	82	26.7	0	0	---	0.00	30.210 
03:45	31.6	31.6	31.6	83	27.0	0	1	248	0.00	30.212 
03:50	31.6	31.6	31.6	83	27.0	0	0	---	0.00	30.212 
03:55	31.6	31.6	31.6	83	27.0	0	0	---	0.00	30.212 
04:00	31.6	31.6	31.6	83	27.0	0	0	---	0.00	30.210 
04:05	31.6	31.6	31.6	83	27.0	0	1	248	0.00	30.210 
04:10	31.6	31.6	31.6	83	27.0	0	1	248	0.00	30.210 
04:15	31.6	31.6	31.6	83	27.0	0	1	248	0.00	30.207 
04:20	31.6	31.6	31.6	83	27.0	0	1	248	0.00	30.207 
04:25	31.5	31.5	31.5	83	26.9	0	1	248	0.00	30.207 
04:30	31.5	31.5	31.5	83	26.9	0	1	248	0.00	30.196 
04:35	31.3	31.3	31.3	83	26.7	0	1	248	0.00	30.196 
04:40	31.3	31.3	31.3	83	26.7	0	1	248	0.00	30.196 
04:45	31.2	31.2	31.2	83	26.6	0	0	---	0.00	30.193 
04:50	31.2	31.2	31.2	82	26.4	0	0	---	0.00	30.193 
04:55	31.2	31.2	31.2	82	26.4	0	1	248	0.00	30.193 
05:00	31.2	31.2	31.2	82	26.4	0	1	248	0.00	30.181 
05:05	31.2	31.2	31.2	82	26.4	0	1	248	0.00	30.181 
05:10	31.2	31.2	31.2	82	26.4	0	1	248	0.00	30.181 
05:15	31.2	31.2	31.2	83	26.6	0	1	248	0.00	30.190 
05:20	31.2	31.2	31.2	83	26.6	0	1	248	0.00	30.190 
05:25	31.2	31.2	31.2	83	26.6	0	1	248	0.00	30.190 
05:30	31.2	31.2	31.2	83	26.6	0	1	248	0.00	30.194 
05:35	31.2	31.2	31.2	83	26.6	0	1	248	0.00	30.194 
05:40	31.2	31.2	31.2	83	26.6	0	0	---	0.00	30.194 
05:45	31.2	31.2	31.2	83	26.6	0	0	---	0.00	30.198 
05:50	31.2	31.2	31.2	83	26.6	0	1	248	0.00	30.198 
05:55	31.2	31.2	31.2	83	26.6	0	0	---	0.00	30.198 
06:00	31.2	31.2	31.2	83	26.6	0	0	---	0.00	30.187 
06:05	31.2	31.2	31.2	83	26.6	0	0	---	0.00	30.187 
06:10	31.2	31.2	31.2	83	26.6	0	1	248	0.00	30.187 
06:15	31.2	31.2	31.2	83	26.6	0	1	248	0.00	30.189 
06:20	31.2	31.2	31.2	83	26.6	0	1	248	0.00	30.189 
06:25	31.2	31.2	31.2	83	26.6	0	1	248	0.00	30.189 
06:30	31.2	31.2	31.2	83	26.6	0	1	248	0.00	30.191 
06:35	31.2	31.2	31.2	83	26.6	0	0	---	0.00	30.191 
06:40	31.2	31.2	31.2	83	26.6	0	0	---	0.00	30.191 
06:45	31.2	31.2	31.2	83	26.6	0	0	---	0.00	30.181 
06:50	31.2	31.2	31.2	83	26.6	0	1	248	0.00	30.181 
06:55	31.2	31.2	31.2	83	26.6	0	0	---	0.00	30.181 
07:00	31.3	31.3	31.3	83	26.7	0	0	---	0.00	30.172 
07:05	31.3	31.3	31.3	83	26.7	0	0	---	0.00	30.172 
07:10	31.3	31.3	31.3	83	26.7	0	0	---	0.00	30.172 
07:15	31.3	31.3	31.3	83	26.7	0	0	---	0.00	30.171 
07:20	31.3	31.3	31.3	83	26.7	0	0	---	0.00	30.171 
07:25	31.3	31.3	31.3	83	26.7	0	0	---	0.00	30.171 
07:30	31.3	31.3	31.3	84	27.0	0	1	248	0.00	30.175 
07:35	31.3	31.3	31.3	84	27.0	0	0	---	0.00	30.175 
07:40	31.3	31.3	31.3	84	27.0	0	1	248	0.00	30.175 
07:45	31.3	31.3	31.3	84	27.0	0	2	248	0.00	30.165 
07:50	31.3	31.3	31.3	84	27.0	0	1	248	0.00	30.165 
07:55	31.3	31.3	31.3	83	26.7	0	0	---	0.00	30.165 
08:00	31.3	31.3	31.3	83	26.7	0	0	---	0.00	30.165 
08:05	31.3	31.3	31.3	84	27.0	0	2	248	0.00	30.165 
08:10	31.5	31.5	31.5	84	27.2	0	1	248	0.00	30.165 
08:15	31.5	31.5	31.5	84	27.2	0	1	248	0.00	30.178 
08:20	31.5	31.5	31.5	84	27.2	0	1	248	0.00	30.178 
08:25	31.5	31.5	31.5	84	27.2	0	1	248	0.00	30.178 
08:30	31.5	31.5	31.5	84	27.2	0	1	248	0.00	30.162 
08:35	31.5	31.5	31.5	84	27.2	0	1	248	0.00	30.162 
08:40	31.5	31.5	31.5	84	27.2	0	1	248	0.00	30.162 
08:45	31.5	31.5	31.5	84	27.2	0	2	248	0.00	30.181 
08:50	31.5	31.5	31.5	84	27.2	0	1	248	0.00	30.181 
08:55	31.5	31.5	31.5	84	27.2	0	2	248	0.00	30.181 
09:00	31.5	31.5	31.5	84	27.2	0	2	248	0.00	30.189 
09:05	31.5	31.5	31.5	84	27.2	0	1	225	0.00	30.189 
09:10	31.5	31.5	31.5	84	27.2	0	1	202	0.00	30.189 
09:15	31.5	31.5	31.5	84	27.2	0	1	202	0.00	30.197 
09:20	31.5	31.5	31.5	83	26.9	0	1	202	0.00	30.197 
09:25	31.6	31.6	31.6	83	27.0	0	0	---	0.00	30.197 
09:30	31.6	31.6	31.6	83	27.0	0	1	202	0.00	30.189 
09:35	31.6	31.6	31.6	83	27.0	0	3	248	0.00	30.189 
09:40	31.6	31.6	31.6	83	27.0	0	1	248	0.00	30.189 
09:45	31.8	31.8	31.8	83	27.2	0	1	248	0.00	30.200 
09:50	31.8	31.8	31.8	83	27.2	0	1	248	0.00	30.200 
09:55	31.8	31.8	31.8	83	27.2	0	2	248	0.00	30.200 
10:00	31.8	31.8	31.8	83	27.2	0	1	248	0.00	30.194 
10:05	31.8	31.8	31.8	83	27.2	0	1	248	0.00	30.194 
10:10	31.8	31.8	31.8	83	27.2	0	1	248	0.00	30.194 
10:15	31.8	31.8	31.8	83	27.2	0	1	248	0.00	30.192 
10:20	31.9	31.9	31.9	83	27.3	0	2	248	0.00	30.192 
10:25	31.9	31.9	31.9	83	27.3	0	2	248	0.00	30.192 
10:30	31.9	31.9	31.9	84	27.6	0	2	248	0.00	30.197 
10:35	31.9	31.9	31.9	84	27.6	0	1	248	0.00	30.197 
10:40	31.9	31.9	31.9	84	27.6	0	1	248	0.00	30.197 
10:45	31.9	31.9	31.9	84	27.6	0	2	248	0.00	30.196 
10:50	31.9	31.9	31.9	84	27.6	0	1	248	0.00	30.196 
10:55	32.1	32.1	32.1	84	27.8	0	1	248	0.00	30.196 
11:00	32.1	32.1	32.1	84	27.8	0	1	248	0.00	30.191 
11:05	32.1	32.1	32.1	84	27.8	0	2	248	0.00	30.191 
11:10	32.1	32.1	32.1	84	27.8	0	1	248	0.00	30.191 
11:15	32.2	32.2	32.2	84	27.9	0	2	248	0.00	30.181 
11:20	32.4	32.4	32.4	84	28.1	0	1	248	0.00	30.181 
11:25	32.4	32.4	32.4	83	27.8	0	0	---	0.00	30.181 
11:30	32.4	32.4	32.4	83	27.8	0	2	248	0.00	30.179 
11:35	32.4	32.4	32.4	83	27.8	0	1	248	0.00	30.179 
11:40	32.4	32.4	32.4	83	27.8	0	1	248	0.00	30.179 
11:45	32.4	32.4	32.4	83	27.8	0	1	248	0.00	30.172 
11:50	32.4	32.4	32.4	83	27.8	0	1	248	0.00	30.172 
11:55	32.5	32.5	32.5	83	27.9	0	1	248	0.00	30.172 
12:00	32.5	32.5	32.5	83	27.9	0	1	248	0.00	30.167 
12:05	32.7	32.7	32.7	83	28.1	0	1	248	0.00	30.167 
12:10	32.7	32.7	32.7	82	27.8	0	2	248	0.00	30.167 
12:15	32.7	32.7	32.7	82	27.8	0	2	248	0.00	30.164 
12:20	32.7	32.7	32.7	82	27.8	0	3	248	0.00	30.164 
12:25	32.8	32.8	32.8	82	27.9	0	1	248	0.00	30.164 
12:30	32.8	32.8	32.8	82	27.9	0	2	248	0.00	30.149 
12:35	32.8	32.8	32.8	82	27.9	0	2	248	0.00	30.149 
12:40	32.8	32.8	32.8	82	27.9	0	1	248	0.00	30.149 
12:45	32.9	32.9	32.9	82	28.0	0	1	248	0.00	30.136 
12:50	32.9	32.9	32.9	82	28.0	0	1	248	0.00	30.136 
12:55	32.9	32.9	32.9	82	28.0	0	1	248	0.00	30.136 
13:00	32.9	32.9	32.9	82	28.0	0	1	248	0.00	30.134 
13:05	32.9	32.9	32.9	82	28.0	0	1	248	0.00	30.134 
13:10	32.9	32.9	32.9	82	28.0	0	2	248	0.00	30.134 
13:15	32.9	32.9	32.9	82	28.0	0	1	248	0.00	30.132 
13:20	32.9	32.9	32.9	82	28.0	0	2	248	0.00	30.132 
13:25	32.8	32.8	32.8	82	27.9	1	3	248	0.00	30.132 
13:30	32.8	32.8	32.8	82	27.9	0	2	248	0.00	30.136 
13:35	32.8	32.8	32.8	82	27.9	1	2	248	0.00	30.136 
13:40	32.8	32.8	32.8	82	27.9	0	2	248	0.00	30.136 
13:45	32.8	32.8	32.8	82	27.9	0	2	248	0.00	30.135 
13:50	32.8	32.8	32.8	82	27.9	0	2	248	0.00	30.135 
13:55	32.8	32.8	32.8	82	27.9	0	2	248	0.00	30.135 
14:00	32.7	32.7	32.7	82	27.8	1	3	248	0.00	30.133 
14:05	32.7	32.7	32.7	83	28.1	1	3	248	0.00	30.133 
14:10	32.7	32.7	32.7	83	28.1	1	3	248	0.00	30.133 
14:15	32.5	32.5	32.5	83	27.9	1	3	248	0.00	30.132 
14:20	32.5	32.5	32.5	83	27.9	0	2	248	0.00	30.132 
14:25	32.7	32.7	32.7	83	28.1	0	1	248	0.00	30.132 
14:30	32.7	32.7	32.7	83	28.1	0	2	248	0.00	30.133 
14:35	32.7	32.7	32.7	82	27.8	0	2	248	0.00	30.133 
14:40	32.7	32.7	32.7	82	27.8	1	3	248	0.00	30.133 
14:45	32.5	32.5	32.5	81	27.3	1	4	248	0.00	30.129 
14:50	32.5	32.5	32.5	81	27.3	2	4	292	0.00	30.129 
14:55	32.5	32.5	32.5	81	27.3	0	3	292	0.00	30.129 
15:00	32.5	32.5	32.5	81	27.3	0	3	292	0.00	30.130 
15:05	32.5	32.5	32.5	81	27.3	0	3	292	0.00	30.130 
15:10	32.5	32.5	32.5	81	27.3	1	3	292	0.00	30.130 
15:15	32.5	32.5	32.5	81	27.3	0	3	292	0.00	30.130 
15:20	32.5	32.5	32.5	81	27.3	0	2	292	0.00	30.130 
15:25	32.4	32.4	32.4	81	27.2	1	4	292	0.00	30.130 
15:30	32.4	32.4	32.4	81	27.2	1	3	315	0.00	30.128 
15:35	32.4	32.4	32.4	80	26.9	1	3	315	0.00	30.128 
15:40	32.2	32.2	32.2	80	26.7	0	2	315	0.00	30.128 
15:45	32.4	32.4	32.4	80	26.9	1	3	315	0.00	30.130 
15:50	32.4	32.4	32.4	80	26.9	1	3	292	0.00	30.130 
15:55	32.4	32.4	32.4	80	26.9	0	3	292	0.00	30.130 
16:00	32.4	32.4	32.4	81	27.2	0	3	292	0.00	30.134 
16:05	32.4	32.4	32.4	81	27.2	0	2	292	0.00	30.134 
16:10	32.4	32.4	32.4	81	27.2	1	2	292	0.00	30.134 
16:15	32.2	32.2	32.2	81	27.0	1	4	292	0.00	30.145 
16:20	32.1	32.1	32.1	81	26.9	2	4	292	0.00	30.145 
16:25	32.1	32.1	32.1	81	26.9	2	5	315	0.00	30.145 
16:30	31.9	31.9	31.9	81	26.7	2	4	270	0.00	30.152 
16:35	31.9	31.9	31.9	81	26.7	0	4	270	0.00	30.152 
16:40	31.9	31.9	31.9	82	27.0	0	2	270	0.00	30.152 
16:45	31.9	31.9	31.9	82	27.0	1	3	270	0.00	30.159 
16:50	31.9	31.9	31.9	82	27.0	1	3	270	0.00	30.159 
16:55	31.8	31.8	31.8	82	26.9	1	3	270	0.00	30.159 
17:00	31.8	31.8	31.8	82	26.9	1	3	270	0.00	30.160 
17:05	31.8	31.8	31.8	82	26.9	1	3	270	0.00	30.160 
17:10	31.8	31.8	31.8	82	26.9	1	5	248	0.00	30.160 
17:15	31.8	31.8	31.8	82	26.9	1	2	270	0.00	30.165 
17:20	31.6	31.6	31.6	82	26.7	2	4	270	0.00	30.165 
17:25	31.6	31.6	31.6	82	26.7	1	4	270	0.00	30.165 
17:30	31.6	31.6	31.6	82	26.7	1	3	270	0.00	30.172 
17:35	31.6	31.6	31.6	82	26.7	1	4	248	0.00	30.172 
17:40	31.6	31.6	31.6	82	26.7	1	3	248	0.00	30.172 
17:45	31.6	31.6	31.6	82	26.7	1	3	248	0.00	30.175 
17:50	31.6	31.6	31.6	82	26.7	0	2	248	0.00	30.175 
17:55	31.6	31.6	31.6	82	26.7	1	2	248	0.00	30.175 
18:00	31.6	31.6	31.6	82	26.7	1	3	248	0.00	30.180 
18:05	31.6	31.6	31.6	82	26.7	1	3	248	0.00	30.180 
18:10	31.6	31.6	31.6	82	26.7	0	2	248	0.00	30.180 
18:15	31.6	31.6	31.6	81	26.5	0	3	248	0.00	30.183 
18:20	31.6	31.6	31.6	81	26.5	1	3	248	0.00	30.183 
18:25	31.6	31.6	31.6	81	26.5	1	4	248	0.00	30.183 
18:30	31.5	31.5	31.5	81	26.4	1	3	248	0.00	30.189 
18:35	31.5	31.5	31.5	81	26.4	1	3	248	0.00	30.189 
18:40	31.5	31.5	31.5	81	26.4	1	3	248	0.00	30.189 
18:45	31.5	31.5	31.5	81	26.4	1	3	248	0.00	30.197 
18:50	31.3	31.3	31.3	81	26.2	1	4	292	0.00	30.197 
18:55	31.5	31.5	31.5	81	26.4	1	3	292	0.00	30.197 
19:00	31.3	31.3	31.3	81	26.2	1	4	248	0.00	30.200 
19:05	31.3	31.3	31.3	81	26.2	1	2	248	0.00	30.200 
19:10	31.3	31.3	31.3	81	26.2	2	4	270	0.00	30.200 
19:15	31.3	31.3	31.3	81	26.2	1	3	270	0.00	30.213 
19:20	31.3	31.3	31.3	80	25.9	1	5	270	0.00	30.213 
19:25	31.3	31.3	31.3	80	25.9	1	4	248	0.00	30.213 
19:30	31.3	31.3	31.3	80	25.9	1	4	248	0.00	30.213 
19:35	31.5	31.5	31.5	80	26.1	0	2	248	0.00	30.213 
19:40	31.5	31.5	31.5	80	26.1	0	3	248	0.00	30.213 
19:45	31.5	31.5	31.5	80	26.1	0	2	248	0.00	30.226 
19:50	31.5	31.5	31.5	80	26.1	0	3	248	0.00	30.226 
19:55	31.5	31.5	31.5	80	26.1	0	2	248	0.00	30.226 
20:00	31.5	31.5	31.5	79	25.8	1	5	248	0.00	30.229 
20:05	31.3	31.3	31.3	78	25.3	2	4	248	0.00	30.229 
20:10	31.3	31.3	31.3	77	24.9	2	4	248	0.00	30.229 
20:15	31.3	31.3	31.3	77	24.9	2	4	248	0.00	30.229 
20:20	31.3	31.3	31.3	77	24.9	2	4	270	0.00	30.229 
20:25	31.3	31.3	31.3	77	24.9	1	5	315	0.00	30.229 
20:30	31.2	31.2	31.2	77	24.8	1	3	292	0.00	30.221 
20:35	31.2	31.2	31.2	77	24.8	1	4	270	0.00	30.221 
20:40	31.2	31.2	31.2	77	24.8	1	3	270	0.00	30.221 
20:45	31.2	31.2	31.2	78	25.2	2	4	270	0.00	30.222 
20:50	31.2	31.2	31.2	78	25.2	1	3	292	0.00	30.222 
20:55	31.2	31.2	31.2	78	25.2	1	3	292	0.00	30.222 
21:00	31.2	31.2	31.2	78	25.2	0	2	292	0.00	30.221 
21:05	31.2	31.2	31.2	78	25.2	1	5	292	0.00	30.221 
21:10	31.2	31.2	31.2	77	24.8	1	3	292	0.00	30.221 
21:15	31.0	31.0	31.0	77	24.7	1	3	292	0.00	30.219 
21:20	31.0	31.0	31.0	78	25.0	1	3	292	0.00	30.219 
21:25	31.0	31.0	31.0	78	25.0	1	3	292	0.00	30.219 
21:30	31.0	31.0	31.0	78	25.0	1	3	292	0.00	30.215 
21:35	31.0	31.0	31.0	78	25.0	0	3	292	0.00	30.215 
21:40	30.9	30.9	30.9	78	24.9	1	3	292	0.00	30.215 
21:45	30.9	30.9	30.9	77	24.6	1	3	292	0.00	30.213 
21:50	30.7	30.7	30.7	77	24.4	1	3	292	0.01	30.213 
21:55	30.7	30.7	30.7	77	24.4	0	3	292	0.00	30.213 
22:00	30.7	30.7	30.7	77	24.4	0	3	292	0.00	30.211 
22:05	30.7	30.7	30.7	77	24.4	0	1	292	0.00	30.211 
22:10	30.7	30.7	30.7	77	24.4	0	2	292	0.00	30.211 
22:15	30.7	30.7	30.7	77	24.4	0	4	270	0.00	30.214 
22:20	30.7	30.7	30.7	77	24.4	1	4	270	0.00	30.214 
22:25	30.7	30.7	30.7	77	24.4	0	2	270	0.00	30.214 
22:30	30.6	30.6	30.6	77	24.3	0	3	270	0.00	30.212 
22:35	30.6	30.6	30.6	77	24.3	0	2	270	0.00	30.212 
22:40	30.6	30.6	30.6	77	24.3	0	2	270	0.00	30.212 
22:45	30.6	30.6	30.6	77	24.3	0	3	270	0.00	30.214 
22:50	30.6	30.6	30.6	77	24.3	0	2	270	0.00	30.214 
22:55	30.6	30.6	30.6	77	24.3	0	2	270	0.00	30.214 
23:00	30.4	30.4	30.4	77	24.1	0	2	270	0.00	30.215 
23:05	30.4	30.4	30.4	77	24.1	1	3	270	0.00	30.215 
23:10	30.4	30.4	30.4	77	24.1	1	3	270	0.00	30.215 
23:15	30.3	30.3	30.3	77	24.0	1	3	270	0.00	30.214 
23:20	30.3	30.3	30.3	77	24.0	1	3	270	0.00	30.214 
23:25	30.3	30.3	30.3	76	23.7	1	4	270	0.00	30.214 
23:30	30.3	30.3	30.3	76	23.7	1	2	270	0.00	30.215 
23:35	30.1	30.1	30.1	76	23.5	1	3	270	0.00	30.215 
23:40	30.1	30.1	30.1	76	23.5	0	2	270	0.00	30.215 
23:45	30.1	30.1	30.1	76	23.5	1	3	270	0.00	30.219 
23:50	30.1	30.1	30.1	76	23.5	1	3	270	0.00	30.219 
23:55	30.0	30.0	30.0	76	23.4	1	2	270	0.00	30.219 

CoCoRaHS
IN-AL-39
A2 Web Hosting
Creative Commons License
GoDaddy
search engine by freefind advanced

loaded 2018-11-15 18:51:49 • last modified 2010-11-18 10:43:29
Privacy PolicyDisclaimer
• wx.awcolley.com is powered by PmWiki v.2002016 •
• all content (unless otherwise noted) © 2018 A W Colley